Change the Weather History Date:

Thursday, April 11, 2013

  Actual Average Record
Temperature  
Mean Temperature 55 °F 58 °F  
Max Temperature 69 °F 68 °F 79 °F (2008)
Min Temperature 41 °F 49 °F 41 °F (2013)
Degree Days  
Heating Degree Days 10 7  
Month to date heating degree days 54 83  
Since 1 July heating degree days 1665 1781  
Cooling Degree Days 0 0  
Month to date cooling degree days 0 0  
Year to date cooling degree days 0 1  
Growing Degree Days 5 (Base 50)    
Moisture  
Dew Point 48 °F    
Average Humidity 64    
Maximum Humidity 86    
Minimum Humidity 42    
Precipitation  
Precipitation 0.00 in 0.03 in 0.15 in (2012)
Month to date precipitation T 0.36  
Year to date precipitation 1.74 8.29  
Since 1 July precipitation 5.58  
Snow  
Snow 0.00 in - - ()
Month to date snowfall 0.0  
Year to date snowfall 0.0  
Since 1 July snowfall 0.0  
Snow Depth 0.00 in    
Sea Level Pressure  
Sea Level Pressure 29.88 in    
Wind  
Wind Speed 5 mph (SSW)    
Max Wind Speed 16 mph    
Max Gust Speed 22 mph    
Visibility 9 miles    
Events      
T = Trace of Precipitation, MM = Missing Value Source: NWS Daily Summary

Daily Weather History Graph

Daily Weather History Graph

Search for Another Location

Airport or City:

Trip Planner

Search our weather history database for the weather conditions in past years. The results will help you decide how hot, cold, wet, or windy it might be!

Date:

Astronomy

Apr. 11, 2013 Rise Set
Actual Time 6:23 AM PDT 7:17 PM PDT
Civil Twilight 5:58 AM PDT 7:42 PM PDT
Nautical Twilight 5:28 AM PDT 8:12 PM PDT
Astronomical Twilight 4:57 AM PDT 8:43 PM PDT
Moon 7:02 AM PDT (4/11) 8:50 PM PDT (4/11)
Length of Visible Light 13h 44m
Length of Day
12h 53m
New Moon, 2% of the Moon is Illuminated
Apr 11
New Moon
Apr 18
First Quarter
Apr 25
Full
May 2
Last Quarter
May 9
New

Hourly Weather History & Observations

Time (PDT) Temp. Dew Point Humidity Pressure Visibility Wind Dir Wind Speed Gust Speed Precip Events Conditions
12:52 AM 46.9 °F 42.1 °F 83% 30.01 in 10.0 mi Calm Calm - N/A   Clear
1:52 AM 45.0 °F 39.9 °F 82% 30.00 in 10.0 mi Calm Calm - N/A   Clear
2:52 AM 44.1 °F 39.0 °F 82% 29.98 in 10.0 mi Calm Calm - N/A   Clear
3:52 AM 44.1 °F 37.9 °F 79% 29.96 in 10.0 mi Calm Calm - N/A   Clear
4:52 AM 44.1 °F 37.0 °F 76% 29.95 in 10.0 mi Calm Calm - N/A   Clear
5:52 AM 42.1 °F 37.0 °F 82% 29.95 in 10.0 mi Calm Calm - N/A   Clear
6:52 AM 43.0 °F 36.0 °F 76% 29.96 in 10.0 mi Calm Calm - N/A   Clear
8:52 AM 60.1 °F 37.0 °F 42% 29.95 in 10.0 mi ENE 3.5 mph - N/A   Clear
9:52 AM 66.9 °F 46.0 °F 47% 29.93 in 10.0 mi SSW 5.8 mph - N/A   Clear
10:52 AM 66.9 °F 52.0 °F 59% 29.94 in 9.0 mi SW 10.4 mph - N/A   Clear
11:52 AM 68.0 °F 54.0 °F 61% 29.92 in 8.0 mi SW 9.2 mph - N/A   Clear
12:52 PM 66.0 °F 53.1 °F 63% 29.89 in 8.0 mi SSW 12.7 mph - N/A   Clear
1:52 PM 66.9 °F 53.1 °F 61% 29.87 in 8.0 mi SW 13.8 mph - N/A   Clear
2:52 PM 66.9 °F 53.1 °F 61% 29.85 in 8.0 mi SW 12.7 mph - N/A   Partly Cloudy
3:19 PM 64.4 °F 53.6 °F 68% 29.84 in 8.0 mi SW 15.0 mph 20.7 mph N/A   Mostly Cloudy
3:41 PM 64.4 °F 53.6 °F 68% 29.84 in 8.0 mi SSW 13.8 mph 18.4 mph N/A   Overcast
3:52 PM 64.0 °F 53.1 °F 67% 29.84 in 8.0 mi SSW 10.4 mph 16.1 mph N/A   Overcast
4:47 PM 62.6 °F 53.6 °F 72% 29.82 in 7.0 mi SW 12.7 mph - N/A   Overcast
4:52 PM 61.0 °F 52.0 °F 72% 29.82 in 7.0 mi SW 8.1 mph - N/A   Overcast
5:28 PM 60.8 °F 51.8 °F 72% 29.82 in 7.0 mi SSW 9.2 mph - N/A   Overcast
5:52 PM 61.0 °F 52.0 °F 72% 29.81 in 7.0 mi SW 9.2 mph - N/A   Overcast
6:01 PM 60.8 °F 51.8 °F 72% 29.81 in 7.0 mi SSW 8.1 mph 16.1 mph N/A   Overcast
6:52 PM 60.1 °F 52.0 °F 75% 29.82 in 7.0 mi South 4.6 mph - N/A   Overcast
7:17 PM 59.0 °F 51.8 °F 77% 29.82 in 7.0 mi SSW 5.8 mph - N/A   Overcast
7:52 PM 59.0 °F 52.0 °F 78% 29.82 in 8.0 mi SSW 6.9 mph - N/A   Overcast
8:52 PM 59.0 °F 51.1 °F 75% 29.82 in 9.0 mi Variable 3.5 mph - N/A   Overcast
9:52 PM 59.0 °F 51.1 °F 75% 29.83 in 9.0 mi South 4.6 mph - N/A   Overcast
10:52 PM 59.0 °F 51.1 °F 75% 29.83 in 9.0 mi SSW 5.8 mph - N/A   Overcast
11:52 PM 59.0 °F 51.1 °F 75% 29.83 in 9.0 mi South 4.6 mph - N/A   Overcast